sat.trackr.live / text

‹ back to catalog

SCS-01 K

NORAD 63991 · 2025-100K

PAYLOAD ACTIVE UNKNOWN

§ Identity

Operator
Country
PRC
Launch date
2025-05-14
Launch site
JSC
Launch vehicle
Mass (kg)
RCS (m²)

External: N2YO · Heavens-Above · Gunter

§ Orbital elements

Epoch: 2026-09-21T23:15:08.301312Z

Period
94.68 min
Inclination
97.3555°
Eccentricity
0.0008356
Mean motion
15.20979532 rev/d
Perigee alt
497.1 km
Apogee alt
508.6 km
Semi-major
6,881.0 km
B*
3.6746e-4
RAAN
335.5269°
Arg perigee
348.1026°
Mean anomaly
12.0011°
Rev number
7,533

§ Raw data

SCS-01 K1 63991U 25100K   26264.96884608  .00008085  00000+0  36746-3 0  99942 63991  97.3555 335.5269 0008356 348.1026  12.0011 15.20979532 75339

JSON: /api/v1/satellites/63991 · /tle

For live sub-satellite position, see the globe view (requires WebGL).

§ Visibility from observer

Set your observer location to see the next 7 days of passes ≥ 10°. The values pass through the URL so the page stays shareable.

No JS? Fill the form by hand. The geolocation button needs JavaScript.